www.pogodaiklimat.ru

Погода и климат >> Архив погоды >> Финляндия >> Муонио Аламуонио


ПОГОДА в Муонио Аламуонио

  • Прогноз погоды в Муонио Аламуонио
  • Монитор погоды в Муонио Аламуонио

АРХИВ ПОГОДЫ в Муонио Аламуонио

Время (UTC), дата Ветер
(напр.,м/с)
 
Видим.   Явления Облачность Т
(С)
Тd
(С)
f
(%)
Тe
(С)
Тes
(С)
Комфортность P
(гПа)
Po
(гПа)
Тmin
(С)
Tmax
(С)
R
(мм)
R24
(мм)
S
(см)
22 11.04 СЗ 3 50 км 10/10 1500 м
[]
-0.4 -5.1 71 -5 -5 1027.6 997.4
23 11.04 СЗ 1 50 км 10/10 1500 м
[]
-1.2 -5.1 75 -3 -3 1027.9 997.7
00 12.04 В 1 50 км 10/10 1500 м
[]
-1.4 -5.2 75 -3 -3 1028.2 997.9
01 12.04 СЗ 2 50 км 10/10 1500 м
[]
-1.3 -5.4 74 -5 -5 1028.3 998.1
02 12.04 З 2 50 км 8/8 1500 м
[]
-3.9 -6.3 83 -8 -8 1029.1 998.5
03 12.04 ЮВ 1 40 км 9/9 1500 м
[]
-4.7 -6.7 86 -7 -7 1029.4 998.8
04 12.04 Ю 1 23 км 4/1 1500 м
[]
-5.3 -7.3 86 -8 -7 1029.7 999.0
05 12.04 ЮЗ 1 23 км 9/8 1500 м
[]
-2.4 -6.2 75 -4 -4 1029.7 999.3
06 12.04 З 1 28 км 10/10 1500 м
[]
-1.0 -5.8 70 -3 -3 1029.9 999.6 -5.3 +0.4 65
07 12.04 ЮЗ 1 35 км 4/1 1500 м
[]
+1.7 -5.3 60 +1 +4 1029.5 999.5
08 12.04 СЗ 4 40 км 9/9 2000 м
[]
+2.7 -4.6 59 -2 -1 1029.9 1000.0
09 12.04 СЗ 4 35 км ясно +4.1 -4.0 56 0 +4 1030.0 1000.3
10 12.04 З 3 40 км 4/4 1500 м
[]
+3.9 -4.1 56 +1 +4 1030.3 1000.6
11 12.04 СЗ 4 45 км 4/4 2000 м
[]
+4.5 -4.4 52 +1 +3 1030.6 1000.9
12 12.04 СЗ 4 45 км 10/10 1500 м
[]
+4.9 -4.7 50 +1 +1 1030.9 1001.2
14 12.04 СЗ 3 45 км 9/9 1500 м
[]
+4.8 -5.1 49 +2 +2 1030.9 1001.3
15 12.04 СЗ 3 50 км ясно +4.6 -4.5 52 +2 +3 1031.0 1001.3
16 12.04 СЗ 3 45 км ясно +4.3 -4.6 52 +1 +2 1031.1 1001.4
17 12.04 СЗ 3 50 км ясно +3.3 -4.1 58 -0 0 1031.4 1001.5
18 12.04 З 2 50 км 6/6 1500 м
[]
+0.9 -3.4 73 -2 -2 1031.9 1001.8 -1.0 +5.3
19 12.04 З 1 35 км 9/9 1500 м
[]
-0.3 -3.8 77 -2 -2 1032.3 1002.1
20 12.04 З 1 25 км 10/10 1500 м
[]
-0.5 -3.7 79 -2 -2 1032.7 1002.4
21 12.04 ЮВ 1 45 км 10/10 1500 м
[]
-0.4 -3.4 80 -2 -2 1032.9 1002.6
22 12.04 З 1 50 км 10/10 1500 м
[]
-0.5 -3.6 80 -2 -2 1033.1 1002.8
23 12.04 Ю 1 50 км 10/10 1500 м
[]
-1.0 -3.4 84 -3 -3 1033.5 1003.1
00 13.04 штиль 0 45 км 10/10 1500 м
[]
-1.2 -3.6 84 -2 -2 1033.6 1003.2
01 13.04 ЮЗ 1 40 км 10/10 1500 м
[]
-1.3 -3.3 86 -3 -3 1033.5 1003.1
02 13.04 ЮЗ 1 35 км 10/10 1500 м
[]
-0.5 -3.7 79 -2 -2 1033.7 1003.3
03 13.04 Ю 1 35 км 10/10 1500 м
[]
-1.1 -3.5 84 -3 -3 1033.9 1003.5
04 13.04 ЮВ 1 35 км 10/10 1500 м
[]
-0.4 -3.6 79 -2 -2 1033.8 1003.5
05 13.04 ЮВ 1 30 км 10/10 1500 м
[]
+0.5 -3.7 73 -1 -1 1033.7 1003.5
06 13.04 Ю 1 45 км 10/10 1500 м
[]
+1.5 -4.0 67 0 0 1033.7 1003.6 -1.4 +2.0 61
07 13.04 З 2 45 км 9/9 1500 м
[]
+2.4 -4.2 62 -0 0 1033.5 1003.5
08 13.04 СЗ 3 40 км 10/10 1500 м
[]
+3.3 -4.7 56 -0 -0 1033.5 1003.6
09 13.04 З 3 45 км 10/10 1500 м
[]
+3.8 -4.3 55 +1 +1 1033.6 1003.8
10 13.04 З 3 40 км 10/10 1500 м
[]
+4.2 -4.1 55 +1 +1 1033.5 1003.7
11 13.04 З 3 35 км 4/4 1500 м
[]
+5.4 -4.0 51 +3 +6 1033.3 1003.6
12 13.04 З 3 35 км 3/3 1500 м
[]
+5.4 -4.0 51 +3 +6 1033.3 1003.6
13 13.04 З 4 40 км 4/4 1500 м
[]
+5.2 -3.9 52 +2 +4 1033.6 1003.9
14 13.04 З 3 45 км 8/8 1000 м
[]
+4.3 -3.5 57 +1 +2 1033.6 1003.8
15 13.04 З 3 45 км 4/1 1000 м
[]
+4.9 -3.0 57 +2 +3 1033.4 1003.7
16 13.04 СЗ 3 50 км 4/4 2000 м
[]
+4.4 -3.3 57 +1 +2 1033.1 1003.3
17 13.04 З 2 45 км 4/3 1500 м
[]
+3.4 -3.1 62 +1 +1 1033.0 1003.2
18 13.04 З 1 50 км 6/0
[]
+2.2 -3.1 68 +1 +1 1033.5 1003.4 +1.5 +5.7
19 13.04 З 2 40 км 9/0
[]
+1.6 -2.6 74 -2 -2 1033.7 1003.6
20 13.04 ЮЗ 2 50 км 9/8 2000 м
[]
+1.3 -2.6 75 -2 -2 1033.9 1003.7
21 13.04 З 2 50 км 9/0
[]
+0.9 -3.0 75 -2 -2 1034.0 1003.8
22 13.04 З 2 50 км 8/1 2000 м
[]
+0.2 -3.2 78 -3 -3 1034.1 1003.9
23 13.04 З 1 50 км 10/0
[]
-1.3 -3.9 82 -3 -3 1034.2 1003.7
00 14.04 ЮЗ 2 50 км 9/0
[]
-1.2 -3.5 84 -5 -5 1034.4 1003.9
01 14.04 штиль 0 23 км 9/0
[]
-3.6 -4.7 92 -5 -5 1034.4 1003.7
02 14.04 штиль 0 30 км ясно -5.4 -6.2 94 -6 -6 1034.7 1003.8
03 14.04 В 1 30 км ясно -5.9 -6.7 94 -8 -8 1034.7 1003.7
04 14.04 Ю 1 50 км ясно -4.1 -4.9 94 -7 -6 1034.4 1003.7
05 14.04 ЮВ 1 35 км ясно -3.4 -5.4 86 -6 -4 1034.3 1003.7
06 14.04 ЮВ 1 35 км ясно +1.9 -3.5 67 +1 +3 1033.5 1003.5 -6.6 +2.2 60
07 14.04 З 1 35 км ясно +2.7 -3.2 65 +2 +6 1033.5 1003.5
08 14.04 СЗ 3 35 км ясно +4.8 -2.4 60 +2 +6 1033.6 1003.8
09 14.04 З 3 35 км ясно +5.7 -2.3 56 +3 +8 1033.5 1003.8
10 14.04 З 3 35 км ясно +6.5 -2.0 55 +4 +9 1033.4 1003.9
11 14.04 З 3 35 км ясно +7.1 -1.7 54 +5 +10 1033.6 1004.1
12 14.04 З 3 35 км ясно +7.4 -1.6 53 +5 +10 1033.5 1004.0
13 14.04 З 4 35 км ясно +7.4 -1.3 54 +4 +8 1033.4 1003.9
14 14.04 З 4 35 км ясно +7.2 -0.7 57 +4 +6 1033.4 1003.9
15 14.04 З 3 35 км ясно +7.0 -0.5 59 +4 +6 1033.6 1004.1
16 14.04 З 2 45 км ясно +6.4 -0.7 60 +5 +6 1033.8 1004.3
17 14.04 З 3 40 км ясно +5.6 -1.2 62 +3 +3 1033.9 1004.3
18 14.04 СЗ 2 40 км ясно +3.9 -1.4 68 +1 +1 1034.4 1004.5 +1.9 +7.7
19 14.04 СЗ 2 40 км ясно +2.6 -1.6 74 -0 -0 1034.7 1004.7
20 14.04 З 2 40 км ясно +2.0 -1.9 75 -1 -1 1034.8 1004.7
21 14.04 З 2 35 км ясно +1.0 -2.2 79 -2 -2 1035.2 1005.0
22 14.04 СЗ 2 35 км ясно +0.7 -2.4 80 -3 -3 1035.4 1005.1
23 14.04 СЗ 2 21 км ясно -2.2 -3.3 92 -6 -6 1035.7 1005.1
00 15.04 ЮЗ 1 23 км ясно -2.8 -3.7 94 -5 -5 1035.6 1004.9
01 15.04 Ю 1 29 км ясно -4.1 -5.3 91 -7 -7 1035.9 1005.2
02 15.04 ЮВ 1 27 км ясно -5.1 -5.9 94 -8 -8 1036.0 1005.1
03 15.04 ЮВ 1 25 км ясно -6.0 -7.0 93 -8 -8 1036.2 1005.2
04 15.04 штиль 0 22 км ясно -6.1 -6.9 94 -7 -6 1036.2 1005.2
05 15.04 ЮЗ 1 25 км ясно -3.5 -5.3 87 -6 -4 1036.0 1005.3
06 15.04 ЮЗ 1 30 км ясно +0.9 -4.2 69 -1 +2 1035.4 1005.2 -6.8 +3.9 57
07 15.04 З 1 35 км ясно +2.8 -3.7 62 +2 +6 1035.5 1005.4
08 15.04 З 3 35 км ясно +4.3 -3.3 58 +1 +5 1035.6 1005.8
09 15.04 СЗ 3 35 км ясно +5.5 -3.7 52 +3 +8 1035.8 1006.1
10 15.04 С 3 40 км ясно +6.1 -4.0 48 +4 +9 1035.9 1006.3
11 15.04 СЗ 3 40 км ясно +6.9 -4.2 45 +5 +10 1035.9 1006.3
12 15.04 С 4 45 км ясно +7.2 -4.1 44 +4 +8 1035.9 1006.3
13 15.04 СЗ 4 35 км ясно +7.1 -3.9 45 +4 +7 1035.8 1006.2
14 15.04 СЗ 3 45 км ясно +7.1 -3.5 47 +5 +8 1035.6 1006.0
15 15.04 СЗ 2 45 км ясно +7.0 -3.4 47 +5 +8 1035.6 1006.0
16 15.04 СЗ 3 40 км ясно +6.6 -3.0 50 +4 +5 1035.6 1006.0
17 15.04 СЗ 2 45 км ясно +5.9 -3.0 53 +4 +4 1035.7 1006.0
18 15.04 С 1 35 км ясно +2.6 -2.7 68 +1 +1 1036.5 1006.4 +0.9 +7.4
19 15.04 СВ 1 40 км ясно +1.3 -2.9 74 -0 -0 1037.1 1006.9
20 15.04 штиль 0 30 км ясно -1.1 -3.9 81 -2 -2 1037.8 1007.3
21 15.04 ЮЗ 1 35 км ясно -2.7 -4.2 89 -5 -5 1038.2 1007.5
22 15.04 С 1 29 км ясно -4.5 -5.9 90 -7 -7 1038.7 1007.8
23 15.04 СВ 1 40 км ясно -6.0 -7.1 92 -8 -8 1039.0 1007.9
00 16.04 З 1 40 км ясно -6.3 -7.0 95 -9 -9 1039.1 1008.0
01 16.04 С 1 40 км ясно -7.6 -8.8 91 -10 -10 1039.4 1008.1
02 16.04 СВ 1 45 км ясно -9.1 -10.4 90 -11 -11 1039.4 1007.9
03 16.04 штиль 0 40 км ясно -9.1 -10.4 90 -10 -10 1039.3 1007.8
04 16.04 штиль 0 3000 м дымка ?/? -7.8 -8.4 95 -9 -9 1039.1 1007.8
05 16.04 З 1 26 км ясно -6.2 -7.6 90 -9 -7 1039.2 1008.0
06 16.04 З 1 26 км ясно -2.5 -4.8 84 -5 -2 1038.4 1007.7 -9.7 +3.2 54
07 16.04 ЮЗ 1 25 км ясно -0.1 -3.8 76 -2 +3 1037.9 1007.5
08 16.04 штиль 0 30 км ясно +4.0 -2.7 62 +3 +10 1036.9 1007.0
09 16.04 ЮЗ 2 26 км ясно +4.6 -2.3 61 +2 +8 1036.6 1006.8
10 16.04 Ю 3 45 км ясно +5.1 -2.5 58 +2 +8 1035.9 1006.1
11 16.04 Ю 2 26 км ясно +6.8 -2.7 51 +5 +12 1035.4 1005.8
12 16.04 Ю 3 30 км 1/0
[]
+6.8 -3.0 50 +4 +9 1034.8 1005.3
13 16.04 ЮЗ 3 35 км ясно +7.8 -3.0 46 +6 +10 1034.5 1005.0
14 16.04 Ю 2 45 км 6/0
[]
+7.6 -3.0 47 +6 +9 1034.2 1004.7
15 16.04 З 1 40 км 9/0
[]
+7.6 -2.8 48 +7 +9 1033.8 1004.3
16 16.04 З 1 40 км 1/0
[]
+7.9 -2.2 49 +8 +9 1033.4 1004.0
17 16.04 СЗ 2 21 км 1/0
[]
+6.7 -2.7 51 +5 +5 1033.4 1003.8
18 16.04 СЗ 3 50 км 5/0
[]
+4.2 -2.2 63 +1 +1 1033.9 1004.0 -2.5 +8.6
19 16.04 С 1 30 км 9/0
[]
+2.5 -2.3 71 +1 +1 1034.5 1004.5
20 16.04 СЗ 2 50 км ясно +0.9 -2.7 77 -2 -2 1035.0 1004.8
21 16.04 СЗ 2 50 км ясно -1.1 -3.4 84 -5 -5 1035.6 1005.1
22 16.04 СЗ 1 50 км ясно -2.0 -3.9 87 -4 -4 1035.8 1005.3
23 16.04 СЗ 2 50 км ясно -2.9 -4.6 88 -7 -7 1035.9 1005.3
00 17.04 СЗ 2 50 км ясно -3.3 -5.1 87 -7 -7 1036.0 1005.3
01 17.04 СЗ 2 50 км ясно -4.3 -5.7 90 -9 -9 1036.4 1005.5
02 17.04 СЗ 1 45 км ясно -6.2 -7.0 94 -9 -9 1036.8 1005.7
03 17.04 штиль 0 35 км 3/0
[]
-7.5 -8.6 92 -8 -8 1036.8 1005.6
04 17.04 штиль 0 35 км 4/0
[]
-6.7 -7.9 91 -8 -7 1036.8 1005.7
05 17.04 штиль 0 20 км 4/0
[]
-3.8 -5.8 86 -5 -3 1036.7 1005.9
06 17.04 СЗ 1 28 км 5/0
[]
-1.6 -5.5 75 -4 -1 1036.5 1006.0 -7.8 +4.2 52
07 17.04 З 2 30 км 1/0
[]
-1.0 -5.4 72 -5 -1 1036.6 1006.1
08 17.04 З 2 35 км ясно +0.5 -4.7 68 -3 +3 1036.6 1006.3
09 17.04 З 2 35 км ясно +2.1 -4.5 62 -1 +6 1036.5 1006.4
10 17.04 З 2 35 км ясно +3.0 -4.5 58 +1 +7 1036.1 1006.1
11 17.04 З 2 45 км 9/0
[]
+3.4 -4.7 55 +1 +5 1036.0 1006.0
12 17.04 З 2 35 км ясно +4.4 -4.5 52 +2 +8 1035.6 1005.8
13 17.04 З 2 40 км ясно +5.0 -5.2 48 +3 +8 1035.4 1005.7
14 17.04 З 2 30 км 1/0
[]
+5.0 -4.8 49 +3 +7 1035.1 1005.3
15 17.04 З 2 40 км 5/0
[]
+5.5 -5.0 47 +4 +5 1034.8 1005.1
16 17.04 СЗ 1 45 км ясно +5.8 -5.4 44 +5 +7 1034.5 1004.9
17 17.04 СЗ 2 50 км 3/0
[]
+5.3 -5.0 47 +3 +4 1034.5 1004.8
18 17.04 СЗ 1 23 км ясно +2.4 -3.2 66 +1 +1 1034.9 1004.9 -1.8 +6.0
19 17.04 З 2 50 км 9/0
[]
+1.0 -4.5 67 -2 -2 1035.2 1005.0
20 17.04 штиль 0 20 км 5/0
[]
-1.6 -4.6 80 -3 -3 1035.8 1005.3
21 17.04 В 1 50 км ясно -2.7 -5.3 82 -5 -5 1036.2 1005.6
22 17.04 штиль 0 40 км 4/0
[]
-3.4 -5.3 87 -4 -4 1036.4 1005.6
23 17.04 В 1 45 км 9/0
[]
-5.8 -7.4 88 -8 -8 1036.7 1005.6
00 18.04 штиль 0 50 км ясно -6.2 -7.2 93 -7 -7 1036.5 1005.5
01 18.04 штиль 0 45 км ясно -7.1 -8.3 91 -8 -8 1036.5 1005.3
02 18.04 штиль 0 45 км ясно -8.1 -9.0 93 -9 -9 1036.5 1005.2
03 18.04 штиль 0 45 км ясно -9.1 -10.8 87 -10 -10 1036.5 1005.1
04 18.04 штиль 0 45 км ясно -8.2 -9.6 90 -9 -8 1036.1 1004.8
05 18.04 штиль 0 25 км ясно -5.5 -7.7 84 -6 -5 1035.7 1004.8
06 18.04 ЮВ 1 35 км 9/0
[]
-1.4 -5.7 72 -3 -2 1034.8 1004.4 -9.5 +2.4 51
07 18.04 штиль 0 23 км 9/0
[]
+1.5 -5.0 62 +1 +4 1034.2 1004.0
08 18.04 Ю 1 29 км ясно +4.1 -4.9 52 +3 +10 1033.4 1003.6
09 18.04 Ю 2 35 км ясно +5.8 -4.5 48 +4 +10 1032.7 1003.1
10 18.04 Ю 3 30 км ясно +7.4 -4.2 44 +5 +11 1032.0 1002.6
11 18.04 ЮЗ 3 30 км ясно +8.7 -4.1 40 +7 +13 1031.3 1002.0
12 18.04 ЮЗ 3 40 км ясно +9.0 -4.1 39 +7 +12 1030.7 1001.4
13 18.04 Ю 4 30 км ясно +8.9 -3.7 41 +7 +10 1030.4 1001.1
14 18.04 ЮЗ 3 28 км 3/3
[]
+9.6 -5.2 35 +8 +10 1029.7 1000.5
15 18.04 З 3 40 км 1/0
[]
+9.1 -6.6 32 +7 +9 1029.7 1000.5
16 18.04 З 3 40 км ясно +8.4 -4.9 39 +6 +7 1029.5 1000.3
17 18.04 СЗ 2 50 км ясно +7.1 -5.5 40 +6 +6 1029.5 1000.1
18 18.04 З 2 50 км ясно +5.1 -5.1 48 +3 +3 1029.4 999.8 -1.4 +9.8
19 18.04 З 2 18 км ясно +2.0 -3.6 66 -1 -1 1029.7 999.7
20 18.04 СЗ 2 30 км 3/3
[]
+1.0 -4.2 68 -2 -2 1029.8 999.7
21 18.04 В 1 45 км 1/1 2000 м
[]
-2.2 -5.1 80 -4 -4 1030.2 999.8
22 18.04 штиль 0 35 км ясно -2.1 -4.8 82 -3 -3 1030.2 999.8

 

Местоположение метеостанции Муонио Аламуонио (Финляндия): широта 67.99 долгота 23.68 высота над уровнем моря 236 м.

В архиве по умолчанию представлена погода в Муонио Аламуонио за последнюю неделю. Архивные данные за месяц целиком и за предыдущие месяцы, начиная с января 2011 года, Вы можете получить, выбрав интересующий диапазон дат из раскрывающегося списка и нажав кнопку "Ввод!".


*Определитесь, кто Вы:
робот инопланетянин человек

Внимание! Время в таблицах - всемирное. Для получения местного времени необходимо прибавить поправку, которая равна 1 ч.

Смотрите также архив погоды в соседних городах и на ближайших метеорологических станциях:

Погода в Муонио Лаукукеро (Финляндия) (17 км)
Погода в Муонио Саммалтунтури (Финляндия) (18 км)
Погода в Киттиля Ломполонвуома (Финляндия) (22 км)
Погода в Киттила Кенттарова (Финляндия) (23 км)
Погода в Киттила Маторова (Финляндия) (23 км)
Погода в Паркаломполо (Швеция) (46 км)
Погода в Киттила Левитунтури (Финляндия) (54 км)
Погода в Киттиля (Финляндия) (59 км)
Погода в Киттиля (Финляндия) (64 км)
Погода в Наккала (Финляндия) (68 км)

Пояснения к столбцам:

Ветер - указаны скорость ветра в м/с - средняя за 10 мин, порывы в срок и между сроками (в фигурных скобках) и направление, откуда дует ветер: С - северный, СВ - северо-восточный, В - восточный, ЮВ - юго-восточный, Ю - южный, ЮЗ - юго-западный, З - западный, СЗ - северо-западный.
Видимость - горизонтальная дальность видимости в метрах или километрах. При видимости от 1 до 10 км при отсутствии осадков обычно наблюдается дымка, при ухудшении видимости до 1 км и менее - туман. В сухую погоду видимость может ухудшаться дымом, пылью или мглою.
Явления - указаны атмосферные явления, наблюдавшиеся в срок или в последний час перед сроком; фигурными скобками обозначены явления, наблюдавшиеся между сроками (за 1-3 часа до срока); квадратными скобками обозначены град или гололедные отложения с указанием их диаметра в мм.
Облачность - указаны через наклонную черту общая и нижняя облачность в баллах и высота нижней границы облаков в метрах; квадратными скобками обозначены формы облаков: Ci - перистые, Cs - перисто-слоистые, Cc - перисто-кучевые, Ac - высококучевые, As - высокослоистые, Sc - слоисто-кучевые, Ns - слоисто-дождевые, Cu - кучевые, Cb - кучево-дождевые. Подробнее классификацию облаков см. в Атласе облаков (PDF).
T - Температура воздуха - температура, измеренная на высоте 2 м над землей.
Td - Температура точки росы - температура, при понижении до которой содержащийся в воздухе водяной пар достигнет насыщения.
f - Относительная влажность воздуха - влажноcть воздуха, измеренная на высоте 2 м над землей.
Te - Эффективная температура - температура, которую ощущает одетый по сезону человек в тени. Характеристика душности погоды. При расчете учитывается влияние влажности воздуха и скорости ветра на теплоощущения человека.
Tes - Эффективная температура на солнце - температура, которую ощущает человек, с поправкой на солнечный нагрев. Характеристика знойности погоды. Зависит от высоты солнца над горизонтом, облачности и скорости ветра. Ночью, в пасмурную погоду, а также при ветре 12 м/с и более поправка равна нулю.
P - Атмосферное давление - приведенное к уровню моря атмосферное давление.
Po - Атмосферное давление - измеренное на уровне метеостанции атмосферное давление.
Tmin - Минимальная температура - минимум температуры воздуха на высоте 2 м над землей.
Tmax - Максимальная температура - максимум температуры воздуха на высоте 2 м над землей.
R - Количество осадков - Количество выпавших осадков за период времени, мм. При наведении курсора мыши на число - период времени, за который выпало указанное количество осадков.
R24 - Количество осадков - Количество выпавших осадков за 24 часа, мм.
S - Снежный покров - Высота снежного покрова, см. При наведении курсора мыши на число - состояние снежного покрова и степень покрытия местности в баллах.